Location: Unspecified
(0.0000°N, 0.0000°E)
Time: 12:51:22
(UTC+00:00)

LightSail 2 - Pass Details

Date: 31 March 2020
Orbit: 693 x 726 km, 24.0° (Epoch: 02 April)

Event Time Altitude Azimuth Distance (km) Brightness Sun altitude
Exits shadow 03:43:57 25° 60° (ENE) 1,382 7.1 -34.9°
Drops below altitude 10° 03:46:01 10° 62° (ENE) 2,136 8.3 -34.4°
Sets 03:48:26 0° 63° (ENE) 3,055 9.3 -33.8°
